Regional Weather Roundup
Issued by NWS Midland/Odessa, TX

Home | Current Version | Previous Version | Text Only | Print | Product List | Glossary On
Versions: 1 2 3 4 5 6 7 8 9 10 11 12 13 14 15 16 17 18 19 20 21 22 23 24 25 26 27 28 29 30 31 32 33 34 35 36 37 38 39 40 41 42 43 44 45 46 47 48 49 50
000
ASUS44 KMAF 300210
RWRMAF
MIDLAND AREA WEATHER ROUNDUP
NATIONAL WEATHER SERVICE MIDLAND TX
900 PM CDT FRI APR 29 2016

...IN SOUTHWEST TEXAS AND SOUTHEAST NEW MEXICO...

CITY           SKY/WX    TMP DP  RH WIND       PRES   REMARKS
ALPINE         CLEAR     67  11  11 NW9       29.89R
ANDREWS        FAIR      70  15  12 W12G20    29.76R
ARTESIA        CLEAR     68  23  18 SW14      29.75R
BIG SPRING     CLEAR     73  22  15 W18G24    29.73R
CARLSBAD       CLEAR     70  19  14 W16       29.75R
DRYDEN           N/A     83  25  12 NW10      29.64R
FORT STOCKTON  CLEAR     72  14  11 NW12      29.75R
GUAD PASS      CLEAR     60  16  18 SW33G49   29.83F
HOBBS          CLEAR     66  16  14 SW13      29.77R
MARFA          CLEAR     60  10  14 W12       29.88R
MIDLAND AIRPK  CLEAR     75  14   9 W22G30    29.74R
MIDLAND INTL   CLEAR     73  14  10 W21       29.73R
ODESSA         CLEAR     73  12   9 W12       29.76R
PECOS          CLEAR     72  13  10 W8        29.75R
PRESIDIO       FAIR      78   9   7 NW14      29.74R
SEMINOLE       CLEAR     69  17  13 W12G18    29.76R
SNYDER           N/A     72  22  15 W12       29.71R
WINK           CLEAR     71  15  11 W10       29.74R
$$
...OTHER STATIONS IN TEXAS...

CITY           SKY/WX    TMP DP  RH WIND       PRES   REMARKS
ABILENE        CLEAR     72  46  39 W9        29.64R
AMARILLO       PTCLDY    49  44  83 N17       29.80R
AUSTIN         CLOUDY    80  74  81 S9        29.61R
BROWNSVILLE    CLOUDY    80  77  90 SE14      29.62R
CORPUS CHRISTI CLOUDY    80  76  87 S18       29.60S
DALLAS FTW     CLOUDY    74  70  87 SE7       29.57R
DEL RIO        CLEAR     80  66  62 E5        29.57R
EL PASO        PTCLDY    69  24  18 W20G28    29.82R
HOUSTON INT    CLOUDY    77  71  82 S14G20    29.65S
LUBBOCK        PTCLDY    63  43  48 NE8       29.72R
SAN ANGELO     PTCLDY    73  43  33 W7        29.66R
SAN ANTONIO    TSTM      69  63  81 N21G41    29.62R
WACO           TSTM      71  67  87 W15G35    29.61R FOG
WICHITA FALLS  NOT AVBL
$$
...OTHER LOCATIONS IN NEW MEXICO...

CITY           SKY/WX    TMP DP  RH WIND       PRES   REMARKS
ALAMAGORDO     CLOUDY    64  25  22 SW15G22   29.80R
ALBUQUERQUE    CLOUDY    52  33  48 NW13      29.84R
CANNON AFB     NOT AVBL
CLOVIS         CLEAR     52  41  66 N10       29.79R
HOLLOMAN AFB   CLEAR     66  27  22 SW16      29.79R
ROSWELL        CLEAR     68  16  13 W6        29.73R
RUIDOSO          N/A     50  18  27 W8        29.89R
SANTA FE       CLOUDY    45  31  58 SW8       29.83R
TRUTH OR CONSE MOCLDY    63  24  22 W17       29.81R
TUCUMCARI      CLEAR     48  43  82 E7        29.77R
$$




USA.gov is the U.S. government's official web portal to all federal, state and local government web resources and services.